Voltar ao catálogo

USA 55

AtivoMilitarPO
NORAD 20547·PAYLOAD·🇺🇸 United States

Lançado Apr 5, 1990 de Vandenberg Space Force Base

Loading…

Próximas Passagens (próximas 24 horas)

TLE

AtualizadoSource: Space-Track

Época: Sep 14, 2026, 21:36 UTC

1 20547U 90028B   26257.90047638  .00004848  00000-0  97706-4 0  9993
2 20547  94.0971 194.0700 0055691 145.6111 214.8771 15.44964357 15718

Acompanhe USA 55 em tempo real com AllMySat

Download on the App Store